Location: �terpigny
(49.8910°N, 2.9249°E)
Time: 13:43:26
(UTC+00:00)

CUBESAT XI-V - Visible Passes

Search period start: 26 June 2022 00:00
Search period end: 06 July 2022 00:00
Orbit: 666 x 692 km, 98.1° (Epoch: 25 June)

Date Brightness Start Highest point End Pass type
(mag) Time Alt. Az. Time Alt. Az. Time Alt. Az.
26 Jun ? 00:00:11 10° ESE 00:03:21 19° ENE 00:06:32 10° NNE visible
26 Jun ? 01:36:29 16° S 01:40:11 68° WSW 01:44:47 10° NNW visible
27 Jun ? 00:34:23 10° SE 00:38:33 35° ENE 00:42:44 10° N visible
27 Jun ? 02:12:26 14° SSW 02:15:51 32° W 02:20:00 10° NNW visible
27 Jun ? 23:35:48 10° ENE 23:37:27 12° NE 23:39:06 10° NNE visible
28 Jun ? 01:10:00 14° SSE 01:13:56 71° ENE 01:18:31 10° N visible
28 Jun ? 02:48:53 10° SW 02:51:43 16° W 02:54:33 10° NW visible
29 Jun ? 00:09:02 10° ESE 00:12:31 22° ENE 00:16:01 10° N visible
29 Jun ? 01:45:57 16° S 01:49:28 56° W 01:54:01 10° NNW visible
30 Jun ? 00:43:30 10° SE 00:47:46 41° ENE 00:52:05 10° N visible
30 Jun ? 02:21:53 13° SSW 02:25:11 27° W 02:29:06 10° NW visible
30 Jun ? 23:44:15 10° E 23:46:35 14° NE 23:48:55 10° NNE visible
01 Jul ? 01:19:27 16° SSE 01:23:11 85° ENE 01:27:48 10° NNW visible
02 Jul ? 00:17:56 10° ESE 00:21:42 26° ENE 00:25:27 10° N visible
02 Jul ? 01:55:25 16° SSW 01:58:46 45° W 02:03:11 10° NNW visible
03 Jul ? 00:52:57 12° SE 00:56:59 50° ENE 01:01:25 10° N visible
03 Jul ? 02:31:21 12° SW 02:34:32 22° W 02:38:08 10° NW visible
03 Jul ? 23:52:54 10° E 23:55:43 16° ENE 23:58:32 10° NNE visible
04 Jul ? 01:28:55 17° S 01:32:26 80° WSW 01:37:03 10° NNW visible
05 Jul ? 00:26:53 10° SE 00:30:52 30° ENE 00:34:51 10° N visible
05 Jul ? 02:04:51 16° SSW 02:08:03 37° W 02:12:20 10° NNW visible
05 Jul ? 23:29:22 10° ENE 23:29:50 10° NE 23:30:17 10° NE visible
